Weather History for Port Isabel, TX

Change the Weather History Date:

Saturday, March 8, 2014

  Actual Average Record
Temperature  
Mean Temperature 71 °F -  
Max Temperature 78 °F - - ()
Min Temperature 64 °F - - ()
Cooling Degree Days 6    
Growing Degree Days 21 (Base 50)    
Moisture  
Dew Point 65 °F    
Average Humidity 85    
Maximum Humidity 94    
Minimum Humidity 68    
Precipitation  
Precipitation 0.34 in - - ()
Sea Level Pressure  
Sea Level Pressure 29.93 in    
Wind  
Wind Speed 11 mph (SE)    
Max Wind Speed 23 mph    
Max Gust Speed 31 mph    
Visibility 6 miles    
Events Rain    
T = Trace of Precipitation, MM = Missing Value Source: NWS Daily Summary

Daily Weather History Graph

Daily Weather History Graph

Search for Another Location

Airport:

Trip Planner

Search our weather history database for the weather conditions in past years. The results will help you decide how hot, cold, wet, or windy it might be!

Date:

Astronomy

Mar. 08, 2014 Rise Set
Actual Time 6:45 AM CST 6:34 PM CST
Civil Twilight 6:22 AM CST 6:57 PM CST
Nautical Twilight 5:56 AM CST 7:24 PM CST
Astronomical Twilight 5:29 AM CST 7:51 PM CST
Moon 12:03 PM CST (3/8) 12:58 AM CST (3/8)
Length of Visible Light 12h 34m
Length of Day
11h 48m
First Quarter, 52% of the Moon is Illuminated
Mar 8
First Quarter
Mar 16
Full
Mar 23
Last Quarter
Mar 30
New
Apr 7
First Quarter

Hourly Weather History & Observations

Time (CST) Temp. Dew Point Humidity Pressure Visibility Wind Dir Wind Speed Gust Speed Precip Events Conditions
12:53 AM 66.9 °F 60.1 °F 79% 29.90 in 10.0 mi SE 9.2 mph - N/A   Overcast
1:53 AM 64.9 °F 61.0 °F 87% 29.88 in 9.0 mi SE 8.1 mph - N/A   Scattered Clouds
2:53 AM 64.9 °F 61.0 °F 87% 29.87 in 8.0 mi ESE 5.8 mph - N/A   Overcast
3:53 AM 64.9 °F 62.1 °F 90% 29.87 in 8.0 mi ESE 5.8 mph - N/A   Overcast
4:53 AM 66.9 °F 62.1 °F 84% 29.87 in 8.0 mi SE 8.1 mph - N/A   Overcast
5:53 AM 66.9 °F 63.0 °F 87% 29.89 in 8.0 mi SE 6.9 mph - N/A   Overcast
6:04 AM 66.2 °F 62.6 °F 88% 29.89 in 8.0 mi SE 6.9 mph - N/A   Overcast
6:16 AM 66.2 °F 64.4 °F 94% 29.89 in 7.0 mi SSE 6.9 mph - N/A   Overcast
6:53 AM 69.1 °F 64.9 °F 87% 29.89 in 8.0 mi SE 13.8 mph - 0.00 in   Overcast
7:02 AM 69.8 °F 64.4 °F 83% 29.89 in 7.0 mi SE 13.8 mph - N/A   Overcast
7:13 AM 69.8 °F 64.4 °F 83% 29.90 in 7.0 mi SSE 15.0 mph - N/A   Overcast
7:53 AM 71.1 °F 64.9 °F 81% 29.90 in 7.0 mi SSE 17.3 mph 23.0 mph N/A   Overcast
8:53 AM 73.0 °F 66.0 °F 79% 29.92 in 8.0 mi SSE 15.0 mph - N/A   Overcast
9:53 AM 75.0 °F 66.0 °F 73% 29.94 in 9.0 mi SSE 18.4 mph 25.3 mph N/A   Overcast
10:48 AM 75.2 °F 66.2 °F 73% 29.94 in 9.0 mi SE 19.6 mph 27.6 mph N/A   Overcast
10:53 AM 75.9 °F 66.0 °F 71% 29.94 in 9.0 mi SSE 19.6 mph 27.6 mph N/A   Overcast
11:15 AM 77.0 °F 66.2 °F 69% 29.93 in 9.0 mi SSE 19.6 mph 27.6 mph N/A   Mostly Cloudy
11:53 AM 78.1 °F 66.9 °F 68% 29.93 in 10.0 mi SE 20.7 mph 26.5 mph N/A   Mostly Cloudy
12:19 PM 75.2 °F 66.2 °F 73% 29.92 in 9.0 mi SE 17.3 mph - N/A   Overcast
12:53 PM 72.0 °F 66.9 °F 84% 29.92 in 7.0 mi ESE 11.5 mph - 0.00 in Rain Light Rain
1:12 PM 73.4 °F 66.2 °F 78% 29.92 in 8.0 mi SE 9.2 mph 18.4 mph 0.00 in Rain Light Rain
1:53 PM 72.0 °F 66.0 °F 81% 29.90 in 8.0 mi ESE 12.7 mph - 0.00 in   Overcast
2:53 PM 69.1 °F 66.0 °F 90% 29.91 in 3.0 mi East 5.8 mph - 0.01 in Rain Light Rain
3:01 PM 69.8 °F 66.2 °F 88% 29.90 in 2.5 mi ESE 8.1 mph - 0.01 in Rain Rain
3:14 PM 69.8 °F 66.2 °F 88% 29.91 in 1.8 mi South 13.8 mph 25.3 mph 0.08 in Rain Heavy Rain
3:23 PM 69.8 °F 66.2 °F 88% 29.90 in 3.0 mi ESE 16.1 mph 23.0 mph 0.11 in Rain Light Rain
3:40 PM 71.6 °F 66.2 °F 83% 29.90 in 2.5 mi SE 23.0 mph 31.1 mph 0.18 in Rain Rain
3:53 PM 70.0 °F 66.9 °F 90% 29.91 in 2.0 mi SSE 11.5 mph 18.4 mph 0.24 in Rain Rain
4:02 PM 71.6 °F 66.2 °F 83% 29.91 in 1.5 mi SSE 10.4 mph - 0.08 in Rain Heavy Rain
4:08 PM 69.8 °F 66.2 °F 88% 29.91 in 3.0 mi ESE 9.2 mph 18.4 mph 0.09 in Rain Light Rain
4:26 PM 68.0 °F 66.2 °F 94% 29.92 in 7.0 mi South 3.5 mph - 0.09 in Rain Light Rain
4:53 PM 69.1 °F 66.0 °F 90% 29.92 in 5.0 mi ESE 10.4 mph 16.1 mph 0.09 in Rain Light Rain
5:04 PM 69.8 °F 66.2 °F 88% 29.92 in 4.0 mi ESE 11.5 mph - 0.00 in Rain Light Rain
5:53 PM 68.0 °F 66.0 °F 93% 29.94 in 5.0 mi East 11.5 mph - 0.00 in   Overcast
6:53 PM 66.9 °F 64.9 °F 93% 29.96 in 6.0 mi East 6.9 mph - 0.00 in   Overcast
7:53 PM 68.0 °F 64.9 °F 90% 29.99 in 6.0 mi East 8.1 mph - N/A   Overcast
8:53 PM 68.0 °F 66.0 °F 93% 30.01 in 7.0 mi East 6.9 mph - N/A   Overcast
9:53 PM 68.0 °F 66.0 °F 93% 30.01 in 6.0 mi East 8.1 mph - N/A   Mostly Cloudy
10:45 PM 66.2 °F 64.4 °F 94% 30.04 in 6.0 mi ENE 4.6 mph - N/A   Overcast
10:53 PM 66.9 °F 64.0 °F 90% 30.04 in 6.0 mi ENE 5.8 mph - N/A   Overcast
11:49 PM 66.2 °F 64.4 °F 94% 30.05 in 6.0 mi ENE 4.6 mph - N/A   Overcast
11:53 PM 66.9 °F 64.9 °F 93% 30.05 in 6.0 mi ENE 4.6 mph - N/A   Overcast